Location: Haliburton Scout Reserve
(45.0900°N, 78.3200°W)
Time: 22:11:42
(UTC-05:00)

X-37B - Visible Passes

Search period start: 05 December 2021 00:00
Search period end: 15 December 2021 00:00
Orbit: 330 x 341 km, 45.0° (Epoch: 20 November)

Date Brightness Start Highest point End Pass type
(mag) Time Alt. Az. Time Alt. Az. Time Alt. Az.
06 Dec 2.4 18:01:22 10° S 18:03:14 16° SSE 18:03:24 16° SE visible
07 Dec 1.7 18:20:50 10° SW 18:23:02 30° S 18:23:02 30° S visible
08 Dec 2.6 17:06:48 10° S 17:08:39 16° SSE 17:10:31 10° ESE visible
08 Dec 2.2 18:40:57 10° WSW 18:42:38 30° SW 18:42:38 30° SW visible
09 Dec 1.6 17:26:16 10° SW 17:28:52 32° SSE 17:30:58 14° E visible
09 Dec 3.3 19:01:20 10° W 19:02:11 18° W 19:02:11 18° W visible
10 Dec 0.6 17:46:22 10° WSW 17:49:12 59° SSE 17:50:30 27° E visible
11 Dec 0.2 18:06:45 10° W 18:09:38 86° S 18:10:02 62° E visible
12 Dec 0.9 18:27:13 10° W 18:29:35 57° W 18:29:35 57° W visible
13 Dec 0.3 17:12:11 10° W 17:15:04 86° S 17:17:56 10° E visible
13 Dec 2.5 18:47:40 10° W 18:49:10 27° W 18:49:10 27° W visible
14 Dec 0.2 17:32:38 10° W 17:35:31 89° N 17:37:35 17° E visible
14 Dec 3.6 19:08:11 10° W 19:08:49 15° W 19:08:49 15° W visible
